This is the latest recevied weather packets stored in our database for station/object KJ7HSW. If no packets are shown the sender has not sent any weather packets the latest 1 day(s).
| Time | Temp. | Humidity | Pressure | Rain* | Wind** | Luminosity | Snow |
|---|---|---|---|---|---|---|---|
| 1778008582 | 20.56° C | 63% | 1014.3 hPa | 0 mm | 1.34 m/s, 276° | 823 W/m² | - |
| 1778008279 | 20.56° C | 62% | 1014.6 hPa | 0 mm | 1.79 m/s, 195° | 818 W/m² | - |
| 1778007975 | 20.56° C | 61% | 1014.5 hPa | 0 mm | 0.89 m/s, 268° | 816 W/m² | - |
| 1778007670 | 21.11° C | 60% | 1014.5 hPa | 0 mm | 0.89 m/s, 161° | 809 W/m² | - |
| 1778007367 | 20.56° C | 62% | 1014.5 hPa | 0 mm | 0.45 m/s, 234° | 808 W/m² | - |
| 1778007063 | 20.56° C | 64% | 1014.5 hPa | 0 mm | 0.89 m/s, 328° | 804 W/m² | - |
| 1778006760 | 20.56° C | 62% | 1014.5 hPa | 0 mm | 0.45 m/s, 202° | 803 W/m² | - |
| 1778006457 | 20.56° C | 61% | 1014.5 hPa | 0 mm | 1.34 m/s, 174° | 794 W/m² | - |
| 1778006153 | 20° C | 63% | 1014.5 hPa | 0 mm | 0.89 m/s, 114° | 792 W/m² | - |
| 1778005851 | 20° C | 60% | 1014.6 hPa | 0 mm | 0.89 m/s, 234° | 785 W/m² | - |
| 1778005547 | 20.56° C | 59% | 1014.6 hPa | 0 mm | 0.45 m/s, 75° | 778 W/m² | - |
| 1778005244 | 20.56° C | 58% | 1014.5 hPa | 0 mm | 3.58 m/s, 107° | 767 W/m² | - |
| 1778004941 | 20.56° C | 58% | 1014.7 hPa | 0 mm | 2.68 m/s, 228° | 762 W/m² | - |
| 1778004638 | 20.56° C | 58% | 1014.6 hPa | 0 mm | 2.24 m/s, 205° | 754 W/m² | - |
| 1778004333 | 20.56° C | 57% | 1014.6 hPa | 0 mm | 1.79 m/s, 218° | 745 W/m² | - |
| 1778004032 | 20.56° C | 57% | 1014.7 hPa | 0 mm | 2.24 m/s, 226° | 736 W/m² | - |
| 1778003732 | 20° C | 57% | 1014.7 hPa | 0 mm | 2.24 m/s, 241° | 729 W/m² | - |
| 1778003429 | 20° C | 59% | 1014.6 hPa | 0 mm | 1.79 m/s, 240° | 717 W/m² | - |
| 1778003126 | 20° C | 57% | 1014.7 hPa | 0 mm | 2.24 m/s, 229° | 711 W/m² | - |
| 1778002822 | 20° C | 57% | 1014.7 hPa | 0 mm | 1.79 m/s, 172° | 700 W/m² | - |
| 1778002519 | 20° C | 57% | 1014.8 hPa | 0 mm | 1.34 m/s, 252° | 689 W/m² | - |
| 1778002216 | 19.44° C | 61% | 1014.7 hPa | 0 mm | 1.34 m/s, 248° | 680 W/m² | - |
| 1778001914 | 18.89° C | 60% | 1014.9 hPa | 0 mm | 1.79 m/s, 194° | 667 W/m² | - |
| 1778001609 | 18.89° C | 61% | 1014.6 hPa | 0 mm | 1.34 m/s, 191° | 656 W/m² | - |
| 1778001305 | 18.33° C | 62% | 1014.8 hPa | 0 mm | 1.79 m/s, 200° | 622 W/m² | - |
* Rain latest hour (hover to see other rain measurements)
** Current wind speed in m/s (hover to see current wind gust speed)